SM3TDV HOME

Welcome to SM3TDV on the Web !

Amateur radio is fun!
Posted on this page, I present what could be achieved with simple means with a Raspberry Pi computer software and some HF hardware :)

WSPR running on a Raspberry Pi in the 30m band.

Only transmitting at the moment, still working on a receiver :)

Tests done with GPS Receiver BU-353 instead of network NTP to later run out in the woods without an internet connection, and it works like clockwork :-)

30m:
2015-04-22
Tests 10 mW at 30 m barefoot with Raspberry Pi and only a low pass filter.
The same antenna for 80 meters. Changed a bit on the coil so that it works alright at 30 too.
Disconnected the SWR meter to get all the power to the antenna :-)

2015-05-03
Began tests with RX at 30m today.
An old Yaesu FT101ZD and a small portable PC used to this.
Locator problems with only 4 characters to corrected by the uploading of RX data.
Now shown JP81ei that is the right locator :)

I have also built a small amp today that with 10mW in gives out 100mW @ 4V and 200mW @ 5V supply voltage.
(0.1W started approximately at 18Z and 0.2W 21:38Z )

I crashed a GPIO output on a Raspberry Pi last night because I probably got too much power back from the antenna when trimming.
So today mounted a 3.3V zener diode on (another) Rpi’s output, so presumably it shall withstand more punishment.

RX closed until further notice.

 

30m
2015-05-03
TX = Raspberry pi Computer with Linux-Raspbian os, CW and WSPR software WsprryPi with NTP network time synchronisation. NTP automatically tracks and calculates a PPM frequency correction. => HF output from GPIO pin ~10mW. 7 poles Low-pass filter before and after 2 transistor PA 2N2222 + BD139 = 100mW @ 4V, 200mW @ 5V  to End Fed Wire Antenna. Height at the feed point approximately 4.5m sloping upwards to the North with a final height at the moment of approximately 12m.The wire length is a bit over 20m I think (do not remember exactly).
This is the latest creation. [LPF + 200mW PA + LPF]
LPF_PA_LPF_30m_1_1024_text
 Longest transmitting distance so far with this creation is 16702 km with 200 mW !  What we see in the picture is just an HF amplifier with filters around, but it fills the their purpose.
 ~
You have got to remember that it’s the Raspberry Pi computer, which is the engine of this .
And the antenna is also important. With a good and matched antenna, you can get far with low power  :-)
R-Pi<—- Raspberry Pi computer
Here we see the result on the map :-)  NOTE! output power is only 200mW here in the 30m band!
Australia

 

 

 

 

 

 

 

 

 

 

 

 

 

 

For a period of twelve hours

39 spots:                    
Timestamp Call MHz SNR Drift Grid Pwr Reporter Grid km az
 2015-05-08 16:10   SM3TDV   10.140129   -10   0   JP81ei   0.2   DJ6OL   JO52ap   1040   204 
 2015-05-08 15:52   SM3TDV   10.140160   -24   0   JP81ei   0.2   ES1HJ   KO29hj   503   112 
 2015-05-08 15:46   SM3TDV   10.140197   -22   0   JP81ei   0.2   G8DYK   IO85te   1286   246 
 2015-05-08 15:46   SM3TDV   10.140195   -26   0   JP81ei   0.2   DH5RAE   JN68qv   1398   189 
 2015-05-08 15:40   SM3TDV   10.140290   -23   0   JP81ei   0.2   DK4TJ   JO31fc   1291   213 
 2015-05-08 15:38   SM3TDV   10.140228   -25   0   JP81ei   0.2   OH7AZL   KP33on   608   61 
 2015-05-08 15:34   SM3TDV   10.140176   -27   0   JP81ei   0.2   GM4SFW   IO77sn   1244   260 
 2015-05-08 15:34   SM3TDV   10.140178   -26   0   JP81ei   0.2   SA6BSS   JO68sc   395   205 
 2015-05-08 15:24   SM3TDV   10.140245   -22   0   JP81ei   0.2   PA3FNY   JO22nc   1233   219 
 2015-05-08 14:54   SM3TDV   10.140147   -21   0   JP81ei   0.2   LA5GOA/RX2   JO29oi   652   255 
 2015-05-08 14:48   SM3TDV   10.140153   -19   0   JP81ei   0.2   DJ1AN   JO43ja   1032   209 
 2015-05-08 14:40   SM3TDV   10.140160   -18   0   JP81ei   0.2   LA9JO   JP99gb   863   6 
 2015-05-08 13:54   SM3TDV   10.140130   -20   0   JP81ei   0.2   PI4THT   JO32kf   1165   214 
 2015-05-08 12:42   SM3TDV   3.594151   -24   0   JP81ei   0.2   DK1QG   JO43sx   914   209 
 2015-05-08 12:32   SM3TDV   10.140251   -18   0   JP81ei   0.2   OZ7IT   JO65df   721   201 
 2015-05-08 10:50   SM3TDV   10.140126   -17   0   JP81ei   0.2   DJ2RD   JO40cc   1349   206 
 2015-05-08 10:36   SM3TDV   10.140283   -26   0   JP81ei   0.2   PA1GSJ   JO22da   1269   221 
 2015-05-08 10:02   SM3TDV   10.140136   -23   0   JP81ei   0.2   F6DED   JN07bx   1807   222 
 2015-05-08 09:28   SM3TDV   10.140142   -11   0   JP81ei   0.2   OH8GKP   KP24rt   596   46 
 2015-05-08 09:22   SM3TDV   10.140187   -15   0   JP81ei   0.2   ON7KO   JO21ce   1353   219 
 2015-05-08 09:02   SM3TDV   10.140217   -9   0   JP81ei   0.2   LA3JJ   JO59bh   412   239 
 2015-05-08 08:54   SM3TDV   10.140145   -24   0   JP81ei   0.2   DK6UG   JN49cm   1411   205 
 2015-05-08 08:54   SM3TDV   10.140134   -14   0   JP81ei   0.2   SM0EPX   JO89sj   227   163 
 2015-05-08 08:38   SM3TDV   10.140143   -25   0   JP81ei   0.2   ON7KB   JO21ei   1331   219 
 2015-05-08 07:54   SM3TDV   10.140285   -28   0   JP81ei   0.2   GM4DIJ   IO85iw   1280   251 
 2015-05-08 07:38   SM3TDV   10.140218   -32   0   JP81ei   0.2   W2VID   FN31ex   6011   293 
 2015-05-08 07:38   SM3TDV   10.140205   -29   0   JP81ei   0.2   DF5FF   JO40kd   1330   204 
 2015-05-08 07:06   SM3TDV   10.140275   -26   0   JP81ei   0.2   LZ1UBO   KN12wv   2112   163 
 2015-05-08 06:36   SM3TDV   10.140134   -22   0   JP81ei   0.2   DK1EY   JO31md   1270   211 
 2015-05-08 06:18   SM3TDV   10.140164   -20   0   JP81ei   0.2   F1VMV   JN24kh   2039   207 
 2015-05-08 05:56   SM3TDV   10.140280   -30   2   JP81ei   0.2   DL1RDB   JN69ba   1397   193 
 2015-05-08 05:46   SM3TDV   10.140241   -30   0   JP81ei   0.2   M5LMY   IO91   1525   232 
 2015-05-08 05:28   SM3TDV   10.140242   -28   0   JP81ei   0.2   G3EJS   IO92fj   1467   235 
 2015-05-08 05:26   SM3TDV   10.140214   -27   0   JP81ei   0.2   VK4XJB   QG52xh   15046   62 
 2015-05-08 05:24   SM3TDV   10.140238   -28   0   JP81ei   0.2   ON7KO/T   JO21ce   1353   219 
 2015-05-08 05:04   SM3TDV   10.140150   -28   0   JP81ei   0.2   M0BLP   JO02ad   1421   231 
 2015-05-08 04:48   SM3TDV   10.140171   -20   0   JP81ei   0.2   DK0SC   JN59mf   1389   196 
 2015-05-08 04:42   SM3TDV   10.140241   -28   0   JP81ei   0.2   F1HDI   JN18   1662   217 
 2015-05-08 04:42   SM3TDV   10.140357   -27   0   JP81ei   0.2   G0MQW   IO91ml   1521   232 
                   

Query time: 0.141 sec


 

 

2015-05-28  30 m  PWR: 200 mW 

wspr_12h_sm3tdv_2015-05-28_30m_200mW_NyaZeland

 

45 spots:

Timestamp Call MHz SNR Drift Grid Pwr Reporter RGrid km az
 2015-05-28 15:28  SM3TDV  10.140208  -26  0  JP81ei  0.2  DF5FF  JO40kd  1330  204
 2015-05-28 15:16  SM3TDV  10.140141  -31  0  JP81ei  0.2  DE6KDP  JO52gg  1070  202
 2015-05-28 14:04  SM3TDV  10.140273  -28  0  JP81ei  0.2  DK8JP  JO31gk  1255  213
 2015-05-28 13:12  SM3TDV  10.140207  -29  0  JP81ei  0.2  DL1ZG  JO40ie  1329  204
 2015-05-28 11:58  SM3TDV  10.140166  -22  0  JP81ei  0.2  G3NR  IO91rf  1526  230
 2015-05-28 10:36  SM3TDV  10.140205  -21  1  JP81ei  0.2  PI4THT  JO32kf  1165  214
 2015-05-28 10:36  SM3TDV  10.140210  -10  0  JP81ei  0.2  OZ7IT  JO65df  721  201
 2015-05-28 10:36  SM3TDV  10.140243  -13  0  JP81ei  0.2  OH8GKP  KP24rt  596  46
 2015-05-28 10:36  SM3TDV  10.140205  -25  0  JP81ei  0.2  DK6UG  JN49cm  1411  205
 2015-05-28 10:34  SM3TDV  10.140233  -16  0  JP81ei  0.2  DJ6OL  JO52ap  1040  204
 2015-05-28 08:42  SM3TDV  10.140218  -25  0  JP81ei  0.2  LA5GOA/RX2  JO29oi  652  255
 2015-05-28 07:28  SM3TDV  10.140246  -21  0  JP81ei  0.2  F4FVW  JN29iv  1465  215
 2015-05-28 06:42  SM3TDV  10.140200  -23  0  JP81ei  0.2  IK3JBR  JN65bl  1787  191
 2015-05-28 03:56  SM3TDV  10.140281  -28  0  JP81ei  0.2  LU5VV  FE48hu  13820  246
 2015-05-28 02:22  SM3TDV  10.140297  -21  0  JP81ei  0.2  EA1FAQ  IN71pn  2615  222
 2015-05-28 01:56  SM3TDV  10.140240  -29  0  JP81ei  0.2  ZL1RS  RF64vs  16702  39
 2015-05-27 23:04  SM3TDV  10.140244  -27  0  JP81ei  0.2  M0BLP  JO02ad  1421  231
 2015-05-27 22:20  SM3TDV  10.140281  -22  0  JP81ei  0.2  DG8RW  JN69cv  1300  193
 2015-05-27 22:20  SM3TDV  10.140275  -20  0  JP81ei  0.2  2E0CHZ  IO82qk  1511  238
 2015-05-27 22:12  SM3TDV  10.140150  -27  0  JP81ei  0.2  M5LMY  IO91  1525  232
 2015-05-27 22:12  SM3TDV  10.140215  -26  0  JP81ei  0.2  GM4DIJ  IO85iw  1280  251
 2015-05-27 22:10  SM3TDV  10.140248  -25  0  JP81ei  0.2  ON0VA  JO10ss  1416  220
 2015-05-27 21:54  SM3TDV  10.140150  -27  0  JP81ei  0.2  MW1CFN  IO73tj  1516  244
 2015-05-27 21:06  SM3TDV  10.140256  -27  0  JP81ei  0.2  DF6MK  JN68ik  1455  191
 2015-05-27 20:50  SM3TDV  10.140126  -28  0  JP81ei  0.2  DG0OPK  JO50gq  1239  199
 2015-05-27 20:48  SM3TDV  10.140264  -21  0  JP81ei  0.2  DK0SC  JN59mf  1389  196
 2015-05-27 20:28  SM3TDV  10.140267  -11  0  JP81ei  0.2  M0ZOS  IO80ek  1727  234
 2015-05-27 20:28  SM3TDV  10.140250  -13  0  JP81ei  0.2  DL6YCU  JO31ws  1184  210
 2015-05-27 20:24  SM3TDV  10.140277  -28  0  JP81ei  0.2  G0MQW  IO91ml  1521  232
 2015-05-27 20:20  SM3TDV  10.140213  -22  0  JP81ei  0.2  ON4CDJ  JO11xc  1369  219
 2015-05-27 20:02  SM3TDV  10.140201  -27  1  JP81ei  0.2  PA1GSJ  JO22da  1269  221
 2015-05-27 19:34  SM3TDV  10.140185  -29  0  JP81ei  0.2  DL4MFC  JN58  1472  196
 2015-05-27 19:30  SM3TDV  10.140179  -21  0  JP81ei  0.2  ON7KO  JO21ce  1353  219
 2015-05-27 19:30  SM3TDV  10.140177  -24  -1  JP81ei  0.2  DM3FML  JO60ux  1165  189
 2015-05-27 19:12  SM3TDV  10.140179  -18  0  JP81ei  0.2  ON7KB  JO21ei  1331  219
 2015-05-27 18:44  SM3TDV  10.140170  -28  0  JP81ei  0.2  GW0MYY  IO71kr  1684  240
 2015-05-27 18:38  SM3TDV  10.140223  -21  0  JP81ei  0.2  RW3QJA  KO90ph  1868  121
 2015-05-27 18:26  SM3TDV  10.140169  -25  0  JP81ei  0.2  NL9222  JO22ke  1233  219
 2015-05-27 18:20  SM3TDV  10.140179  -17  0  JP81ei  0.2  DF9DU  JO31ok  1236  211
 2015-05-27 17:54  SM3TDV  10.140150  -25  0  JP81ei  0.2  PA2W  JO22lf  1226  219
 2015-05-27 16:54  SM3TDV  10.140270  -19  0  JP81ei  0.2  LA9JO  JP99gb  863  6
 2015-05-27 16:34  SM3TDV  10.140123  -21  0  JP81ei  0.2  UNLIS  JN89bo  1307  181
 2015-05-27 16:34  SM3TDV  10.140122  -20  0  JP81ei  0.2  DJ2RD  JO40cc  1349  206
 2015-05-27 16:14  SM3TDV  10.140278  -21  0  JP81ei  0.2  F5DJL  JN36cd  1813  206
 2015-05-27 16:14  SM3TDV  10.140283  -13  0  JP81ei  0.2  GM4SFW  IO77sn  1244  260

Query time: 0.262 sec


 

 

WSPR running on a Raspberry Pi in the 80m band. Data shown below, has been running with 1-2 W output.

Record_2015-04-04_-05_us

 

 

31 spots:
Timestamp Call MHz SNR Drift Grid Pwr Reporter RGrid km az
 2015-04-05 04:46  SM3TDV  3.594165  -25  0  JP81  2  EA1FAQ  IN71pn  2647  223
 2015-04-05 03:56  SM3TDV  3.594041  -4  0  JP81  2  DF6MK  JN68ik  1475  192
 2015-04-05 03:28  SM3TDV  3.594154  -29  0  JP81  2  K4BYN  FM05qu  6840  293
 2015-04-05 03:28  SM3TDV  3.594153  -30  0  JP81  2  N2NOM  FN22bg  6116  296
 2015-04-05 02:26  SM3TDV  3.594194  -27  0  JP81  2  WA4AMG  EL97uf  7740  290
 2015-04-04 23:42  SM3TDV  3.594115  -16  0  JP81  2  PA0O  JO33hg  1100  219
 2015-04-04 23:30  SM3TDV  3.594049  -22  0  JP81  2  ON0VA  JO10ss  1446  221
 2015-04-04 22:36  SM3TDV  3.594093  -22  0  JP81  2  M1AVV  IO84ic  1444  245
 2015-04-04 22:22  SM3TDV  3.594030  -1  0  JP81  2  LA9NKA  JP20qd  644  262
 2015-04-04 21:10  SM3TDV  3.594063  -4  0  JP81  1  DK6UG  JN49cm  1436  206
 2015-04-04 21:10  SM3TDV  3.594070  -17  0  JP81  1  OZ1IDG  JO65bg  745  204
 2015-04-04 21:02  SM3TDV  3.594075  -20  0  JP81  1  G4PMB  IO71  1735  240
 2015-04-04 21:02  SM3TDV  3.594055  -16  0  JP81  1  OH6GAP  KP22rd  452  77
 2015-04-04 21:00  SM3TDV  3.594156  -9  0  JP81  1  F59706  JN07th  1852  219
 2015-04-04 20:58  SM3TDV  3.594146  -20  0  JP81  1  UT7GH  KN66hp  1929  142
 2015-04-04 20:52  SM3TDV  3.594043  -9  0  JP81  1  DO4DEB  JO43ja  1059  211
 2015-04-04 20:52  SM3TDV  3.594037  -5  0  JP81  1  DG2JA  JO31wq  1220  211
 2015-04-04 20:50  SM3TDV  3.594076  -13  0  JP81  1  PA3FNY  JO22nc  1263  220
 2015-04-04 20:50  SM3TDV  3.594071  -12  0  JP81  1  PA0ING  JO33ia  1122  218
 2015-04-04 20:50  SM3TDV  3.594080  -17  0  JP81  1  G3SXH  IO80fr  1731  236
 2015-04-04 20:50  SM3TDV  3.594070  -15  0  JP81  1  PI4THT  JO32kf  1194  215
 2015-04-04 20:50  SM3TDV  3.594031  -17  0  JP81  1  NL8992  JO32fl  1183  217
 2015-04-04 20:50  SM3TDV  3.594055  -26  0  JP81  1  ON7KB  JO21ei  1361  220
 2015-04-04 20:50  SM3TDV  3.594069  -17  0  JP81  1  OE6PWD  JN77rb  1606  184
 2015-04-04 20:50  SM3TDV  3.594065  -14  0  JP81  1  F1VMV  JN24kh  2066  208
 2015-04-04 20:48  SM3TDV  3.594063  -23  0  JP81  1  RK3ABW  KO85ql  1353  110
 2015-04-04 20:48  SM3TDV  3.594061  +10  0  JP81  1  SM0VYI  JO99aj  239  165
 2015-04-04 20:48  SM3TDV  3.594064  -21  0  JP81  1  DO6RPS  JO42ic  1155  209
 2015-04-04 20:48  SM3TDV  3.594065  0  0  JP81  1  SM6WZI  JO67mp  480  209
 2015-04-04 20:48  SM3TDV  3.594062  -4  0  JP81  1  GM4SFW  IO77sn  1277  260
 2015-04-04 20:48  SM3TDV  3.594089  -18  0  JP81  1  DD9LH  JO44ne  933  213
Query time: 0.032 sec

 

WSPR 30m , 2015-07-22-23 , 24 h window.

 

wspr_2015-07-22-23_24h_window

49 spots:

Timestamp Call MHz SNR Drift Grid Pwr Reporter RGrid km az
 2015-07-23 10:50  SM3TDV  10.140249  -26  0  JP81ei  0.2  OE3FVU  JN78ve  1465  182
 2015-07-23 10:20  SM3TDV  10.140203  -24  -2  JP81ei  0.2  ON5UN  JO11wc  1372  219
 2015-07-23 08:50  SM3TDV  10.140157  -28  1  JP81ei  0.2  OE3RFA  JN78ud  1469  182
 2015-07-23 08:30  SM3TDV  10.140259  -13  0  JP81ei  0.2  EW8LL  KO42pb  1295  137
 2015-07-23 06:48  SM3TDV  10.140160  -28  0  JP81ei  0.2  ON0VA  JO10ss  1416  220
 2015-07-23 06:28  SM3TDV  10.140192  -24  0  JP81ei  0.2  NL8992  JO32fl  1153  216
 2015-07-23 05:02  SM3TDV  10.140253  -14  -1  JP81ei  0.2  F59706  JN07th  1821  218
 2015-07-23 00:36  SM3TDV  10.140141  -29  0  JP81ei  0.2  LA9JO  JP99gb  863  6
 2015-07-22 21:58  SM3TDV  10.140142  -27  1  JP81ei  0.2  I0300LI  JN53fj  2035  194
 2015-07-22 21:08  SM3TDV  10.140158  -24  0  JP81ei  0.2  M0XDC  JO01dq  1451  230
 2015-07-22 21:02  SM3TDV  10.140249  -29  0  JP81ei  0.2  M6NNB  IO91ue  1520  230
 2015-07-22 21:00  SM3TDV  10.140228  -30  0  JP81ei  0.2  G4APB  JO01cl  1473  229
 2015-07-22 19:56  SM3TDV  10.140133  -19  0  JP81ei  0.2  DL8ZAJ  JO40kd  1330  204
 2015-07-22 19:46  SM3TDV  10.140247  -27  0  JP81ei  0.2  ZS6KN  KG44bj  9727  169
 2015-07-22 19:30  SM3TDV  10.140179  -21  0  JP81ei  0.2  DC7EJT  JO54bh  865  208
 2015-07-22 19:02  SM3TDV  10.140224  -24  0  JP81ei  0.2  SV9/DK5HH  KM25ee  2964  165
 2015-07-22 19:02  SM3TDV  10.140255  -20  0  JP81ei  0.2  IZ3LCH  JN55wg  1812  191
 2015-07-22 18:58  SM3TDV  10.140125  -26  0  JP81ei  0.2  LA5GOA/RX2  JO29oi  652  255
 2015-07-22 18:34  SM3TDV  10.140185  -18  0  JP81ei  0.2  SM0EPX/RX2  JO89si  231  163
 2015-07-22 18:26  SM3TDV  10.140145  -18  0  JP81ei  0.2  G4ZFQ  IO90ir  1602  231
 2015-07-22 18:24  SM3TDV  10.140233  -24  0  JP81ei  0.2  PA3DVA  JO22hg  1234  220
 2015-07-22 17:46  SM3TDV  10.140226  -21  0  JP81ei  0.2  OZ7IT  JO65df  721  201
 2015-07-22 17:36  SM3TDV  10.140294  -25  1  JP81ei  0.2  G0CWT  IO82uj  1500  237
 2015-07-22 17:22  SM3TDV  10.140149  -26  0  JP81ei  0.2  DJ6OL  JO52ap  1040  204
 2015-07-22 17:14  SM3TDV  10.140290  -26  1  JP81ei  0.2  OH8GKP  KP24rt  596  46
 2015-07-22 17:04  SM3TDV  10.140184  -24  0  JP81ei  0.2  PA2PIM  JO22na  1241  218
 2015-07-22 17:04  SM3TDV  10.139307  -13  1  JP81ei  0.2  PA3FNY  JO22nc  1233  219
 2015-07-22 16:32  SM3TDV  10.140235  -11  0  JP81ei  0.2  ON1DQJ  JO21ja  1350  217
 2015-07-22 16:28  SM3TDV  10.140238  -22  0  JP81ei  0.2  DM3FML  JO60ux  1165  189
 2015-07-22 16:18  SM3TDV  10.140212  -21  0  JP81ei  0.2  DJ2RD  JO40cc  1349  206
 2015-07-22 16:10  SM3TDV  10.140127  -16  0  JP81ei  0.2  OE3BUB  JN88fg  1455  180
 2015-07-22 15:46  SM3TDV  10.140104  -26  0  JP81ei  0.2  G4USP  IO92ge  1481  235
 2015-07-22 15:40  SM3TDV  10.140130  -27  0  JP81ei  0.2  M0RNI  IO82of  1536  237
 2015-07-22 15:20  SM3TDV  10.140270  -24  0  JP81ei  0.2  G3VNC  IO81  1611  236
 2015-07-22 13:54  SM3TDV  10.140114  -26  1  JP81ei  0.2  RU1OZ  LP04gm  1263  63
 2015-07-22 13:34  SM3TDV  10.140240  -27  0  JP81ei  0.2  DK4TJ  JO31fc  1291  213
 2015-07-22 13:06  SM3TDV  10.140152  -22  0  JP81ei  0.2  G0AUR  JO01hp  1442  229
 2015-07-22 12:58  SM3TDV  10.140275  -13  -1  JP81ei  0.2  ON7KO  JO21ce  1353  219
 2015-07-22 12:52  SM3TDV  10.140160  -20  0  JP81ei  0.2  GM4SFW  IO77sn  1244  260
 2015-07-22 12:44  SM3TDV  10.140271  -27  0  JP81ei  0.2  PA1GSJ  JO22da  1269  221
 2015-07-22 12:28  SM3TDV  10.140255  -29  0  JP81ei  0.2  DK0SC  JN59mf  1389  196
 2015-07-22 12:20  SM3TDV  10.140183  -21  0  JP81ei  0.2  PI4THT  JO32kf  1165  214
 2015-07-22 12:10  SM3TDV  10.140118  -19  0  JP81ei  0.2  OE2XRM  JN67lt  1521  190
 2015-07-22 12:08  SM3TDV  10.140175  -22  0  JP81ei  0.2  LY5AT  KO15df  763  151
 2015-07-22 12:08  SM3TDV  10.140162  -25  0  JP81ei  0.2  F6GEJ  JO10ml  1461  220
 2015-07-22 12:06  SM3TDV  10.140196  -24  1  JP81ei  0.2  UNLIS  JN89bo  1307  181
 2015-07-22 12:06  SM3TDV  10.140200  -13  0  JP81ei  0.2  DK6UG  JN49cm  1411  205
 2015-07-22 12:06  SM3TDV  10.140202  -20  0  JP81ei  0.2  ON7KB  JO21ei  1331  219
 2015-07-22 12:06  SM3TDV  10.140208  -25  0  JP81ei  0.2  DL8HAF/P  JO53dm  943  205

Query time: 0.120 sec

 

Member for over 2 years on WSPRnet

 

 

73 / Sm3tdv, Anders